Theta_e
319 319 319 320 321 323 322 322 321 320 323 323 320 320 324 329 323 317 331 341 329 328 338 337 340 343 337 335 330 323 324 326 328 330 331 332 332 333 336 337 339 341 340 341 342 342 342 342 341 342 342 343 343 343 343 344 343 344 345 345 345 346 347 347 347 346 347 347 347 347 348 348 348 348 348 349 349 350 351 352 351 347 342 338 337 336 337
319 318 320 321 321 321 322 321 321 320 322 322 321 323 325 326 323 322 334 340 332 329 335 336 334 330 326 326 324 322 324 325 325 326 327 327 327 328 332 335 337 339 340 341 342 342 343 342 342 343 342 343 343 343 343 344 343 345 345 345 346 346 347 346 346 347 348 348 348 348 348 348 348 348 349 349 350 350 351 352 351 348 345 342 338 336 336
320 319 320 320 319 321 322 321 322 320 320 321 321 322 323 324 325 324 329 335 333 332 337 335 326 319 321 327 326 323 325 325 325 326 326 326 328 328 329 332 335 338 340 340 342 343 343 343 343 343 343 343 343 343 344 344 344 345 345 345 346 346 346 347 347 348 349 349 349 349 348 349 349 349 349 350 350 351 351 353 352 350 347 343 339 337 336
321 320 320 319 319 321 322 322 323 321 319 320 321 322 324 324 324 325 325 326 328 333 337 335 327 323 330 335 328 323 326 328 329 330 330 329 329 329 330 331 333 336 338 341 341 342 343 343 343 343 343 344 343 344 344 344 344 345 346 346 346 346 346 347 347 349 349 349 350 349 349 349 348 349 350 350 351 351 352 353 352 352 348 343 340 339 337
324 321 317 318 321 322 321 320 323 323 321 321 321 322 326 325 324 325 323 323 327 334 335 332 329 329 333 334 327 325 330 332 333 333 332 331 330 330 333 334 335 336 337 339 341 341 343 343 343 344 344 344 344 344 344 345 345 345 346 346 347 346 347 347 348 348 349 350 350 349 349 349 350 350 350 350 351 351 351 353 353 352 349 343 341 339 337
325 321 318 321 325 324 322 321 323 324 323 323 323 322 324 325 325 325 325 326 329 331 331 331 330 329 330 329 329 333 338 336 335 336 335 334 332 332 335 336 337 339 338 339 341 341 342 343 342 343 344 344 345 345 345 345 345 345 346 346 346 347 347 348 348 349 349 350 350 350 350 350 351 351 351 351 351 351 352 353 353 353 350 345 341 339 336
325 324 322 326 328 326 323 321 324 327 325 320 322 325 325 325 324 324 327 329 329 330 330 327 326 329 333 336 340 342 344 340 338 338 337 339 338 337 338 338 338 340 340 340 341 341 342 343 343 344 344 344 344 345 345 346 346 346 346 346 347 348 348 349 349 349 350 350 350 351 351 351 352 352 351 351 352 352 353 353 353 354 352 349 344 338 335
325 326 327 328 328 325 323 324 331 336 339 333 329 323 320 327 329 325 326 329 330 331 327 321 324 333 340 345 348 348 347 344 342 342 341 341 340 340 341 340 339 341 341 340 341 341 341 343 343 343 344 344 345 345 345 346 346 346 346 347 347 348 349 349 350 350 350 350 351 352 353 353 353 352 352 352 352 353 354 354 354 355 355 353 348 342 339
323 325 326 326 325 324 329 336 337 338 341 339 336 331 328 337 342 332 324 328 333 332 327 325 333 342 344 347 349 348 349 348 345 347 347 345 344 342 342 342 341 341 341 341 342 342 341 342 342 343 344 344 345 346 346 346 347 347 347 348 348 348 349 349 350 351 351 352 352 353 354 354 354 353 353 353 353 354 355 355 355 355 355 355 353 350 347
323 323 323 325 326 328 335 338 334 333 334 334 334 333 334 343 352 339 324 324 336 340 339 337 340 343 344 350 350 347 350 351 348 349 350 348 346 344 342 343 344 342 342 341 340 341 341 342 342 343 343 344 345 345 345 346 348 348 348 348 347 348 348 349 350 351 352 352 353 353 354 354 353 353 353 353 354 355 355 355 355 356 356 356 356 355 353
323 322 322 324 325 328 335 335 332 332 333 332 333 331 330 340 353 343 331 326 335 342 346 344 342 339 342 353 352 347 350 351 350 351 351 350 349 346 343 342 342 343 344 343 342 342 342 342 342 342 343 344 344 345 345 346 347 347 347 347 347 348 348 348 350 351 351 353 353 354 354 354 354 354 354 354 355 355 355 355 355 355 356 356 356 356 355
321 323 324 323 322 327 334 333 332 332 332 332 331 328 328 338 345 341 337 333 332 335 339 341 343 340 341 347 349 348 349 351 351 352 352 351 352 350 347 344 341 340 340 342 345 346 345 344 344 343 343 344 344 344 345 346 346 346 346 346 347 348 348 349 350 351 352 352 353 354 353 353 353 354 354 355 355 356 356 356 355 356 356 356 356 356 356
318 321 322 321 324 331 334 332 331 332 332 330 328 329 332 335 339 342 340 334 328 331 336 337 342 347 345 341 345 349 350 351 352 352 353 353 353 353 352 350 347 344 341 342 344 346 348 348 347 345 345 344 344 344 345 345 346 345 345 346 347 348 349 350 350 351 352 352 352 352 351 351 352 353 354 355 355 355 356 356 356 357 357 357 357 357 357
319 322 322 323 328 332 332 332 331 331 333 334 333 332 331 332 339 345 343 336 330 333 337 338 342 345 344 344 347 349 349 350 350 351 352 352 353 353 352 350 348 345 344 344 344 343 345 347 348 349 347 346 346 345 345 345 346 345 346 348 348 348 349 350 350 350 350 350 351 351 351 352 353 354 354 354 355 356 356 357 358 358 358 358 358 358 357
326 329 328 329 332 332 331 333 334 332 334 336 332 329 329 334 341 344 343 341 338 337 340 342 343 344 344 345 346 346 346 347 347 347 348 348 348 348 346 343 344 344 341 341 342 343 345 346 347 349 349 350 350 349 348 347 347 347 348 348 348 349 349 349 349 349 350 350 351 352 352 353 353 354 354 354 355 357 357 358 359 359 359 359 359 358 358
333 335 334 333 333 331 331 333 335 332 330 330 328 327 330 335 338 340 341 343 342 341 343 344 343 344 344 344 344 344 345 345 345 343 343 344 345 346 345 344 346 347 344 342 342 343 344 347 349 351 351 351 352 352 352 352 351 351 351 350 350 350 350 349 350 349 349 350 351 352 353 353 354 356 356 355 355 356 358 359 359 359 359 359 359 359 358
335 338 339 335 332 331 330 330 330 329 327 327 326 327 329 331 332 335 340 343 342 342 343 343 343 343 343 342 342 342 343 343 343 342 342 341 344 347 347 346 346 345 346 348 349 347 349 351 354 356 357 356 355 356 355 355 355 356 356 355 355 354 353 353 352 352 352 351 352 352 352 353 354 355 356 358 358 358 359 360 360 360 360 359 360 359 358
334 336 336 333 331 331 329 327 327 326 326 326 325 325 327 329 331 334 337 340 341 341 342 342 342 342 341 341 342 342 343 344 344 344 343 342 344 346 346 347 348 348 349 352 353 353 354 355 356 358 359 359 359 359 359 358 358 358 357 358 358 358 357 357 356 355 354 353 353 353 353 354 355 355 356 358 359 359 360 360 359 360 360 360 359 359 359
333 334 334 333 332 331 329 327 327 326 326 327 326 325 326 328 330 334 336 337 339 340 340 340 340 340 340 341 341 342 343 344 344 345 344 343 342 342 342 344 346 346 347 349 352 353 354 355 354 354 355 356 356 357 358 359 359 359 360 360 360 360 360 359 359 358 357 357 357 356 355 355 355 356 357 358 359 359 360 359 360 360 360 360 360 359 359
333 334 334 333 331 329 327 326 326 326 327 326 325 326 328 329 330 332 334 335 336 336 337 338 338 339 340 341 341 342 343 343 344 345 346 348 347 346 345 343 342 341 341 343 347 351 353 353 353 353 352 352 352 352 353 353 354 356 357 359 360 361 362 362 361 360 359 358 358 357 356 356 356 357 357 358 358 359 359 359 359 360 360 360 359 359 359
333 334 333 333 333 331 328 326 326 326 326 326 325 325 327 330 331 332 333 334 334 334 335 337 338 339 340 342 342 343 343 343 343 343 344 346 347 348 349 348 347 347 346 347 348 350 350 351 351 351 351 350 350 350 349 349 349 349 349 351 353 356 358 361 362 362 362 362 360 359 358 358 357 357 357 357 358 359 359 359 359 359 359 359 359 359 359
332 333 333 334 336 335 329 326 327 327 325 324 325 325 325 327 331 333 334 333 332 332 333 336 338 338 340 342 342 342 343 343 342 342 342 343 344 344 345 346 347 348 348 348 347 348 348 348 348 348 348 348 347 347 347 347 346 347 346 346 347 348 350 353 356 358 360 361 362 362 362 362 360 359 358 358 358 358 358 359 360 360 359 359 358 359 359
331 332 331 331 333 333 329 327 328 328 325 324 324 325 324 324 327 332 335 336 335 331 330 332 336 338 339 341 341 341 342 342 342 342 343 343 343 344 344 344 345 345 345 346 347 347 347 347 347 347 346 345 345 345 345 345 344 344 344 345 346 347 347 347 348 351 355 358 361 363 363 364 364 362 361 360 359 359 360 359 359 360 360 360 360 359 358
326 331 331 329 330 330 327 327 328 328 325 324 324 324 325 325 327 331 335 336 337 334 328 328 333 338 340 341 341 341 342 342 343 342 343 343 344 344 344 344 345 345 346 346 346 345 344 343 343 343 341 340 340 340 341 342 343 343 344 345 345 345 345 345 346 347 349 351 353 354 354 356 356 355 354 353 352 354 358 360 359 359 360 360 360 360 359
326 330 330 329 328 327 325 326 328 327 326 326 325 323 324 326 327 329 331 331 333 332 329 327 331 338 341 341 342 342 342 342 342 342 342 343 344 344 343 343 344 345 346 344 341 338 337 340 341 339 338 337 337 337 338 339 341 342 342 344 346 346 345 345 344 344 345 346 346 346 346 346 345 341 340 340 339 341 347 354 359 360 360 360 361 360 359
327 330 329 327 327 326 324 324 325 324 324 326 325 324 325 327 328 327 328 327 327 328 327 327 331 337 340 339 340 341 341 340 341 342 342 342 343 343 343 343 344 345 345 344 341 339 340 342 342 340 338 338 336 334 334 335 336 336 336 338 341 344 345 344 344 343 343 342 340 338 337 337 335 330 330 333 335 335 337 343 351 356 358 358 359 359 357
327 329 328 327 327 326 325 324 324 323 322 323 323 323 325 327 327 327 328 327 326 326 325 326 329 335 337 336 336 336 336 337 338 339 339 339 340 341 342 343 343 343 343 343 343 342 343 343 343 341 340 339 337 335 334 332 331 331 332 332 333 334 336 336 335 336 335 332 330 328 328 328 327 326 326 331 335 335 335 336 342 349 353 353 353 354 353
327 327 327 327 327 326 325 324 324 323 323 323 323 322 323 324 325 326 327 326 326 326 325 325 327 330 332 333 334 335 334 335 335 335 335 336 337 338 340 340 341 341 340 340 340 340 339 340 341 341 341 341 340 339 338 336 334 332 329 328 328 329 329 329 328 328 327 326 325 325 325 325 325 325 326 329 332 334 335 333 333 337 344 348 348 349 348
326 326 327 327 326 325 325 325 325 325 324 324 323 323 323 323 323 324 324 323 323 323 322 322 323 324 326 328 331 332 331 330 329 330 331 333 334 336 337 337 338 339 339 339 339 339 338 339 339 340 341 342 343 343 342 341 340 337 334 332 333 334 334 332 330 328 329 328 326 325 325 326 327 326 326 326 328 331 333 332 331 334 340 343 343 343 344
326 326 326 326 325 325 325 325 324 324 323 323 323 323 323 323 323 323 323 322 322 322 321 321 321 322 322 323 324 325 324 323 322 322 325 328 331 334 335 336 337 337 337 338 338 338 339 339 340 340 341 343 343 344 344 344 343 342 341 340 340 340 339 336 332 331 333 334 330 326 325 327 328 328 327 326 326 329 332 333 333 337 341 342 341 342 342
324 325 325 325 324 324 324 323 322 322 321 322 322 322 322 323 323 323 323 323 322 322 322 322 322 323 322 322 322 322 321 321 320 319 319 321 324 328 332 334 334 332 332 334 335 337 338 338 338 339 341 342 342 343 342 340 340 341 341 341 342 342 342 341 338 337 338 338 334 329 326 325 326 328 328 326 326 328 330 331 332 335 337 338 338 338 338
323 324 324 324 324 324 324 324 324 324 324 323 322 322 323 323 324 324 324 323 323 322 322 323 324 326 325 324 323 323 322 322 321 321 320 320 320 322 324 326 327 326 326 327 330 333 335 336 336 337 339 339 340 341 340 339 337 337 337 338 340 340 340 341 341 341 341 341 338 334 330 327 326 328 329 329 329 329 328 328 329 330 331 334 336 336 336
324 324 324 324 325 325 325 325 325 325 325 324 323 324 324 325 325 325 325 323 322 321 320 321 323 325 326 325 324 323 323 323 323 323 323 323 322 321 321 321 321 321 321 321 322 325 328 329 331 334 336 338 338 338 339 339 339 338 337 338 339 339 339 340 340 340 341 342 340 337 333 330 328 329 331 333 334 334 333 331 330 329 329 331 334 335 337
324 324 324 325 325 325 325 325 325 325 325 325 325 325 326 326 326 326 325 324 323 323 323 323 323 323 323 324 324 324 324 324 325 326 326 325 325 324 323 321 321 320 321 320 320 321 322 323 323 326 330 334 336 337 337 338 339 339 339 339 340 340 339 339 339 339 339 338 337 335 333 332 331 330 330 333 335 335 336 337 336 335 335 336 335 335 337
323 323 324 324 325 325 325 325 325 325 325 325 326 326 326 326 326 326 326 326 326 326 327 327 327 326 325 325 325 326 326 326 327 327 326 326 326 326 324 323 323 322 322 323 323 323 323 323 322 322 323 325 329 332 334 336 336 337 338 337 337 339 340 339 338 338 337 335 335 334 333 333 333 333 332 332 334 335 335 337 337 337 337 338 337 337 337
323 324 324 324 324 324 324 325 325 325 325 326 326 326 326 326 326 326 326 327 327 327 327 328 327 327 327 327 327 327 326 325 324 323 322 322 324 324 324 323 323 323 323 324 325 325 325 324 323 323 322 321 321 323 327 329 330 332 333 332 331 334 338 339 339 338 335 333 334 334 334 333 334 334 334 333 334 334 335 336 336 336 336 336 336 336 336
323 324 324 324 325 325 325 325 325 326 326 326 326 326 326 326 327 327 327 327 327 327 327 327 326 327 327 327 327 326 324 321 319 318 318 319 320 321 321 320 321 322 323 324 325 326 326 326 325 325 324 323 321 320 321 321 321 323 328 330 329 330 333 336 337 337 335 333 332 333 333 333 333 332 332 332 333 333 334 334 335 335 335 335 335 336 335
322 323 323 323 323 324 324 324 325 325 325 325 326 326 326 327 327 327 327 327 326 326 326 326 326 326 326 326 325 323 320 318 318 317 318 318 318 318 318 318 319 321 322 323 324 325 326 326 326 326 325 326 326 325 326 326 323 322 325 328 328 326 325 325 327 331 334 334 332 331 331 332 333 332 331 330 330 330 331 331 333 334 334 334 334 335 335
320 321 322 322 322 323 323 323 324 324 324 325 325 325 325 326 326 326 326 326 326 325 325 325 325 325 325 324 323 322 320 319 319 318 318 318 318 317 317 317 318 319 320 320 321 322 323 324 326 326 327 328 329 329 329 330 330 328 327 327 326 323 321 320 321 324 328 331 334 333 331 331 332 332 332 332 331 331 330 330 330 332 334 333 332 333 334
319 320 320 321 321 322 322 323 323 323 323 324 324 324 324 324 323 323 323 322 323 323 323 323 323 323 323 322 321 320 319 319 318 318 318 318 318 318 318 317 318 318 318 319 319 319 321 323 325 326 327 327 328 329 329 329 330 330 330 330 329 329 328 328 328 329 329 331 332 333 333 333 333 332 333 333 333 333 333 331 329 330 332 333 332 332 333
318 319 320 321 321 321 321 322 322 322 322 323 323 323 322 321 320 319 319 320 320 320 320 320 320 320 320 319 318 318 318 318 318 318 318 318 318 319 319 319 318 318 318 318 318 318 319 320 323 325 326 326 326 327 328 329 329 329 329 329 330 330 330 330 331 331 331 331 332 332 333 334 334 333 334 334 333 333 333 333 331 330 331 332 331 331 331
317 318 320 320 320 320 320 321 322 322 322 322 323 322 321 319 318 318 318 318 318 317 317 317 317 317 316 316 316 316 317 317 318 318 318 319 319 319 319 319 319 318 318 318 318 318 318 319 320 322 324 325 325 325 326 327 328 328 328 328 328 328 329 329 329 329 330 330 331 331 331 332 332 333 333 333 333 333 333 333 331 330 331 332 331 331 331
317 317 318 318 319 319 320 320 320 320 320 320 321 321 321 320 319 319 318 317 316 315 315 315 314 314 314 314 314 314 315 316 317 317 318 318 318 318 318 318 319 318 318 318 318 317 317 318 318 319 321 323 324 324 323 324 325 326 326 326 327 327 327 327 328 328 328 328 328 329 329 329 329 330 331 332 332 332 332 331 330 330 330 332 332 332 332
316 316 316 316 317 317 318 318 317 317 318 318 318 318 318 318 318 317 316 315 314 314 314 314 314 314 314 314 314 314 314 314 315 315 315 316 316 317 317 317 317 317 317 317 317 317 318 318 318 318 318 320 322 323 322 322 324 325 325 325 325 326 326 327 327 327 327 327 327 327 327 326 326 328 329 330 330 331 331 330 329 329 329 329 331 331 330
316 315 315 316 315 315 315 315 315 315 316 316 316 316 316 315 315 315 314 314 314 313 313 314 314 314 314 314 314 314 314 314 314 314 314 314 315 315 315 315 315 315 316 316 316 317 317 318 318 318 318 318 320 322 322 323 323 323 324 324 325 325 325 326 326 326 326 326 326 326 326 325 325 326 327 328 328 329 329 329 329 328 327 327 328 328 328
315 315 315 315 315 315 315 315 315 315 315 314 314 314 314 314 314 314 314 314 314 313 313 313 313 313 313 313 313 313 313 313 313 313 313 313 312 313 313 313 313 313 313 314 315 316 317 317 317 318 317 317 318 319 321 321 321 321 321 322 322 323 324 325 325 325 325 325 324 325 325 326 325 325 326 326 327 327 328 328 328 328 328 327 327 326 326
314 314 314 314 314 314 314 314 314 314 314 314 314 313 314 314 314 314 313 313 312 312 312 312 312 312 312 312 312 312 311 311 311 311 311 310 310 310 310 310 309 310 311 312 313 314 315 316 316 317 317 317 317 317 317 317 317 318 319 320 320 321 323 323 323 323 324 324 324 324 325 325 325 325 326 326 327 326 326 326 327 328 328 327 326 325 324
313 314 314 314 314 314 314 314 314 314 314 314 313 313 313 313 313 313 312 312 311 311 311 311 310 310 310 310 310 309 309 309 308 308 308 308 308 307 307 306 306 306 307 308 309 310 311 313 314 315 316 316 317 316 316 315 315 315 316 317 317 318 319 319 319 320 321 323 324 324 324 324 324 324 324 325 326 326 326 326 326 327 327 326 324 323 322
311 311 312 312 313 313 313 313 313 313 313 313 313 313 313 313 312 312 311 311 311 310 310 309 309 309 309 309 308 308 308 307 307 306 306 306 306 305 305 305 304 304 304 304 305 305 307 308 310 311 313 314 314 315 315 315 315 315 315 315 315 315 315 315 315 315 317 319 321 322 323 323 323 322 323 323 323 324 324 325 326 327 326 324 321 320 321
309 309 310 310 310 311 311 312 313 313 313 313 313 312 312 312 311 311 310 310 310 309 309 309 309 308 308 307 307 307 306 306 306 306 305 305 305 305 305 305 304 304 304 304 303 303 304 304 305 307 308 309 310 310 310 310 310 311 311 312 312 313 313 313 314 314 314 315 316 317 318 319 320 321 321 322 322 322 322 323 324 325 325 323 320 321 322
308 308 308 308 308 308 309 309 310 311 311 312 312 312 312 311 310 309 308 308 309 308 308 308 308 307 307 306 306 306 306 305 305 305 305 305 305 305 305 305 304 304 304 304 304 303 303 303 303 304 304 305 305 305 305 305 305 304 305 305 306 306 307 309 310 311 311 312 313 313 314 315 315 316 317 319 320 320 321 321 322 323 323 322 321 322 323
307 307 307 307 307 307 307 307 307 308 308 309 310 310 310 309 309 308 307 307 307 306 306 306 306 306 305 305 305 305 305 305 305 305 304 304 304 304 304 304 304 304 304 303 303 303 303 303 303 303 303 303 303 303 303 302 303 303 303 303 302 302 303 303 304 305 306 307 308 310 311 312 313 313 314 314 315 315 316 317 318 320 321 322 322 322 323
Wind_Speed
6 6 10 12 9 6 8 11 12 12 14 17 20 19 11 11 11 15 9 10 9 8 8 9 9 9 9 11 13 14 14 15 17 18 19 20 20 23 26 30 34 37 40 43 46 48 49 50 51 51 52 54 54 55 56 55 54 54 54 54 54 54 54 55 56 55 54 53 52 51 50 49 47 46 44 43 43 42 41 41 40 40 41 41 42 42 42
8 8 9 9 7 7 8 11 13 14 16 19 21 19 14 13 16 14 7 10 11 9 8 10 11 11 10 9 9 10 11 15 19 19 20 22 24 25 27 30 34 37 39 42 45 47 48 49 50 51 52 53 54 55 55 54 54 54 53 53 53 54 54 55 55 54 54 53 53 52 51 49 48 46 44 43 43 42 41 41 41 41 41 42 43 43 43
7 8 8 8 9 10 11 12 12 14 18 20 20 17 13 12 13 12 8 9 9 8 6 9 11 9 6 6 7 10 13 17 19 19 20 23 24 25 26 28 31 34 37 41 44 46 47 48 49 50 51 52 53 53 54 54 54 54 53 53 53 54 54 54 54 54 54 54 53 52 51 49 48 47 45 44 43 42 42 41 41 41 42 43 44 44 44
5 6 7 11 15 13 11 14 15 15 15 15 14 12 10 11 11 10 11 9 7 7 6 8 10 7 6 8 9 9 12 15 18 18 19 20 20 22 25 25 28 32 36 41 44 45 47 48 49 49 50 50 51 52 53 54 54 53 53 53 53 53 53 53 53 53 53 53 53 53 51 50 48 47 46 45 44 43 43 43 42 42 43 44 44 44 44
4 7 8 10 12 10 10 13 12 12 12 10 10 9 10 13 12 10 12 10 7 7 7 6 9 9 8 9 8 7 9 12 15 18 18 18 19 22 24 23 25 29 34 39 43 45 46 47 47 46 47 49 50 50 51 52 53 52 52 53 53 53 53 53 53 53 53 53 53 53 52 50 49 49 48 48 47 45 45 44 43 43 44 44 45 45 45
4 9 9 7 5 6 7 6 5 6 12 12 11 11 9 11 12 11 10 8 9 10 9 9 12 11 8 8 8 7 8 9 12 15 17 17 19 22 22 21 22 27 31 35 40 42 44 44 43 43 45 47 47 47 49 50 51 52 52 52 53 53 53 53 53 52 52 52 53 53 52 51 50 50 50 50 48 47 47 46 46 46 45 45 45 46 46
3 6 6 3 7 7 5 11 11 7 9 12 13 15 13 12 14 14 10 8 10 11 11 13 15 11 8 7 6 6 6 8 9 11 12 13 17 19 18 17 20 24 27 31 36 39 41 42 42 43 44 45 46 48 49 49 50 51 51 51 52 52 52 52 52 52 52 52 53 53 52 51 51 51 51 50 49 49 49 49 48 48 46 45 46 47 47
1 2 2 4 8 10 13 12 8 7 5 2 6 14 16 13 11 11 10 10 10 11 11 12 13 14 14 10 6 4 5 7 8 9 9 10 13 14 14 15 18 21 24 27 31 35 39 41 42 43 43 44 46 47 48 49 50 50 50 50 51 51 51 51 52 52 52 52 52 52 52 51 51 52 52 51 50 50 50 50 50 50 49 48 47 48 47
3 3 5 4 7 12 10 4 4 5 4 4 1 6 11 9 9 10 10 11 10 8 6 9 15 18 13 7 5 3 4 6 7 6 5 4 6 8 10 12 15 18 20 22 23 26 31 36 38 40 41 42 43 44 45 46 47 47 48 49 49 49 50 51 51 51 51 52 52 52 51 52 52 52 51 51 51 50 51 51 52 52 51 50 49 49 48
3 3 5 3 4 6 3 1 4 4 4 4 4 3 6 7 8 10 11 12 11 5 4 10 16 14 8 3 2 3 5 7 8 6 4 3 2 1 3 6 9 13 16 18 19 20 24 27 31 34 37 39 40 41 42 44 44 44 45 46 47 48 49 49 50 50 50 50 51 51 51 51 51 51 50 50 50 51 51 51 52 52 51 51 51 51 50
4 4 5 4 4 5 4 5 9 9 9 5 3 3 6 6 4 6 9 11 10 9 10 12 13 10 5 5 6 5 7 10 11 10 8 8 8 7 5 2 2 5 8 11 13 15 17 20 23 27 31 34 36 38 40 41 41 42 43 46 47 46 45 46 47 48 48 49 50 51 51 51 51 50 50 50 50 50 51 51 51 51 50 51 52 52 51
6 6 5 4 4 4 4 8 11 16 15 4 4 5 7 6 7 5 10 11 11 14 17 16 11 7 7 7 9 10 11 12 13 13 13 13 13 13 13 11 9 6 4 4 6 9 11 13 15 19 23 27 31 34 36 38 40 40 40 42 44 43 42 44 45 46 47 48 49 49 49 49 49 49 49 49 49 50 51 51 51 51 50 51 51 51 51
8 8 6 5 4 3 5 9 12 17 14 1 6 6 5 9 16 17 11 13 17 19 21 18 10 5 7 13 16 15 13 14 15 14 13 14 15 15 16 15 15 14 13 10 7 6 7 8 9 12 16 20 24 28 32 36 39 38 36 37 39 41 41 43 44 45 46 47 48 48 46 46 46 48 48 49 50 51 51 52 52 53 52 52 51 50 50
6 7 5 5 4 2 6 8 9 12 6 4 4 9 17 19 18 19 16 12 19 21 20 17 13 11 14 17 18 16 14 14 15 13 13 13 14 15 15 15 15 16 16 15 12 9 6 3 5 8 11 14 17 21 26 30 33 35 35 36 38 39 40 41 42 43 44 46 47 48 47 47 48 49 48 49 50 51 52 53 53 53 53 52 50 50 49
4 5 5 5 4 2 7 6 4 8 4 5 9 17 24 23 15 14 16 9 16 23 22 20 19 19 18 16 16 15 14 14 15 14 14 13 13 13 13 14 14 14 13 14 14 13 11 7 3 6 9 11 13 17 21 23 26 30 33 34 35 36 38 39 40 41 43 46 48 49 49 50 51 51 50 49 50 51 53 54 53 53 52 51 50 50 49
5 6 5 3 4 1 6 4 2 2 4 11 16 17 16 16 15 14 13 6 10 20 25 24 22 21 19 16 14 14 14 14 14 13 13 12 12 12 12 13 13 13 12 12 11 10 9 8 5 3 5 8 10 13 16 19 22 25 27 30 32 34 35 37 38 39 42 44 47 48 49 50 51 52 52 51 51 52 53 53 52 51 52 52 51 51 51
3 4 4 5 7 5 7 9 7 6 9 14 18 16 12 12 15 13 8 2 5 12 19 22 21 20 18 16 14 14 14 14 13 13 12 11 11 11 11 11 11 11 10 10 9 8 7 6 5 3 2 3 6 9 12 15 18 20 21 24 27 30 32 34 36 37 40 43 45 47 48 49 51 52 53 52 51 51 50 50 51 52 53 53 53 53 53
2 2 5 9 9 7 7 11 14 15 15 15 16 15 11 12 13 10 8 5 3 6 12 17 19 18 18 18 17 16 16 15 13 12 11 11 10 9 9 9 9 8 8 7 6 7 6 5 4 4 3 1 1 5 8 10 12 14 16 18 21 24 27 30 32 34 37 41 43 45 47 49 51 51 51 50 49 49 49 51 53 54 54 54 54 54 54
4 2 5 8 8 8 8 11 16 19 16 13 13 13 13 13 10 8 10 8 4 6 11 17 21 19 19 21 20 18 18 16 14 13 12 11 9 8 8 8 6 5 5 4 4 4 4 3 4 4 4 4 4 5 6 7 9 11 13 14 17 19 22 25 28 31 35 37 40 42 45 47 49 49 49 49 50 52 53 54 55 56 56 56 56 56 55
5 3 6 9 11 11 14 17 17 16 14 10 11 12 10 10 10 12 14 13 10 10 12 17 22 22 20 21 22 20 19 17 16 15 14 12 10 8 7 5 4 3 2 1 0 1 3 3 4 5 5 6 7 8 9 9 9 9 10 11 13 16 19 22 25 28 31 34 36 38 41 43 45 47 48 50 52 55 57 58 58 58 58 58 58 58 57
3 3 6 9 9 10 14 18 16 12 9 8 11 13 10 8 12 17 20 20 16 13 12 16 21 24 23 23 23 23 22 20 19 19 18 16 14 11 9 7 5 4 3 1 0 1 2 3 5 6 7 8 9 10 12 13 13 13 13 12 12 12 14 17 21 24 27 29 31 33 35 38 42 45 48 51 54 56 59 60 61 61 61 61 61 60 57
5 6 7 8 7 4 7 14 14 9 6 8 13 13 11 9 13 20 24 25 19 12 10 14 20 24 26 25 25 26 26 24 23 22 21 20 18 15 13 12 10 9 8 6 5 4 4 4 5 6 7 9 10 12 14 16 17 18 18 17 17 15 14 14 16 18 20 23 25 27 29 32 36 40 45 49 52 56 58 59 60 62 62 61 59 58 57
5 6 9 12 12 7 7 14 14 6 3 10 15 13 10 10 13 20 26 29 24 15 9 10 18 24 27 27 27 29 28 26 25 24 23 22 21 18 17 16 15 14 13 11 11 10 9 8 7 6 6 6 6 7 8 10 12 14 15 16 17 17 17 16 15 15 15 16 18 21 23 27 30 34 39 44 49 54 57 58 58 60 61 61 60 58 58
9 6 13 18 19 15 14 18 16 7 5 11 14 11 9 11 14 20 25 27 27 18 7 7 17 26 28 28 29 30 30 28 26 26 25 24 23 21 20 19 18 17 16 15 15 14 14 13 13 13 13 14 13 11 9 7 5 6 8 10 11 12 14 14 13 13 12 11 12 14 17 20 23 26 30 35 38 42 50 57 60 62 62 61 60 59 59
11 8 14 20 26 25 21 21 17 11 9 12 11 8 10 14 17 21 24 24 24 20 11 9 18 27 28 29 29 30 30 28 25 24 25 24 24 23 22 21 20 18 17 17 16 15 16 17 18 18 19 20 20 20 18 16 13 11 9 7 7 8 9 10 11 11 10 10 11 12 13 14 15 19 24 27 26 27 36 49 58 62 64 65 65 63 59
12 12 19 25 29 29 24 20 17 13 13 15 11 6 9 15 18 20 21 21 21 19 13 13 21 27 29 29 30 30 30 28 26 25 26 26 25 24 23 22 20 18 18 17 16 16 16 17 18 20 22 23 23 23 22 21 20 19 18 18 16 14 12 11 10 9 9 10 10 12 13 12 14 21 24 23 21 22 27 40 49 52 56 62 63 58 48
11 21 26 23 20 20 20 19 18 17 17 18 16 10 10 14 16 16 17 18 18 15 12 15 22 27 28 29 29 29 30 29 27 26 27 27 26 25 23 21 18 17 17 18 18 17 15 15 16 19 21 22 21 21 20 20 19 19 20 20 21 20 19 17 17 16 15 14 14 16 18 17 19 23 25 23 23 24 19 32 52 58 57 54 48 42 34
16 26 25 21 19 20 19 20 20 19 17 17 17 15 13 14 16 16 14 14 14 12 12 15 21 24 26 27 28 28 28 28 28 28 28 27 26 24 22 20 19 17 17 18 18 17 16 15 15 16 18 18 17 17 18 18 18 18 18 18 19 19 18 17 16 16 14 14 14 15 17 18 19 22 25 25 28 31 25 12 28 47 60 56 47 43 40
20 21 19 25 30 28 24 22 19 17 15 15 16 17 15 15 17 18 16 14 14 14 14 15 18 20 22 24 25 25 26 26 26 25 25 24 24 23 21 19 18 18 18 18 18 16 16 15 15 15 15 15 14 14 14 14 14 15 16 16 16 16 15 14 14 12 11 12 13 12 13 16 18 20 23 25 28 32 32 23 16 34 55 56 49 47 45
20 19 20 28 32 29 27 25 20 17 17 16 16 17 16 16 18 20 18 17 16 16 16 16 16 17 19 20 20 21 21 22 22 21 21 21 21 21 19 17 16 17 19 20 18 17 16 15 15 15 14 13 13 12 11 11 11 11 12 12 13 12 12 12 11 10 9 9 10 10 12 14 15 18 20 22 26 29 30 29 29 35 42 43 40 39 39
23 25 27 30 30 28 29 28 24 21 20 19 19 20 19 20 22 23 20 18 17 16 16 17 18 18 19 18 18 18 19 19 20 20 20 20 20 19 17 16 17 19 20 19 18 16 15 15 15 15 13 12 11 11 10 10 10 9 8 9 9 9 9 8 8 7 6 7 8 11 13 13 13 14 16 18 20 22 24 25 27 28 29 30 29 28 28
29 27 28 28 28 29 29 27 26 25 23 21 22 23 22 24 25 24 20 18 16 15 16 18 19 20 19 19 20 20 20 20 21 21 21 21 20 19 18 17 17 17 17 16 16 15 15 15 16 15 13 11 9 8 7 7 8 7 7 6 7 7 6 6 6 5 5 5 7 9 11 12 12 12 12 14 15 16 16 18 19 19 20 21 21 20 19
28 23 22 23 25 27 27 26 26 26 24 23 24 24 24 25 25 24 21 20 18 18 18 18 18 17 17 17 18 19 19 20 21 22 22 21 20 19 17 16 15 14 13 13 13 12 13 14 14 14 12 11 9 7 6 5 5 5 6 6 7 7 7 6 5 5 5 5 6 8 9 9 10 10 10 10 11 12 13 13 12 12 13 16 18 17 17
26 22 22 23 25 27 27 26 26 26 26 25 24 24 23 23 23 22 22 21 21 21 20 20 18 17 17 17 18 19 20 23 25 25 24 22 21 19 17 15 14 13 12 11 10 10 11 12 12 11 11 10 9 9 8 7 6 5 5 6 7 7 8 6 5 5 5 5 6 6 7 7 7 7 7 6 7 8 10 12 12 13 16 19 20 19 19
27 26 26 26 26 27 28 28 27 26 26 25 23 22 21 21 21 21 21 21 21 21 21 22 23 23 23 24 25 26 26 27 27 25 24 22 20 18 16 16 15 14 14 13 13 13 13 11 11 10 10 9 8 8 8 8 8 8 7 7 6 6 7 6 5 5 5 5 5 4 5 5 6 5 5 4 5 6 8 10 11 12 15 17 18 19 19
28 27 27 26 25 25 26 27 26 26 26 25 23 22 21 20 20 21 20 20 20 20 22 25 27 28 28 28 28 28 28 27 26 25 23 22 20 18 18 18 18 18 17 17 17 16 15 13 12 11 10 9 9 8 8 8 8 9 8 8 8 6 6 5 5 5 5 5 5 4 4 4 4 4 4 4 4 6 7 8 9 11 13 15 17 18 19
27 27 28 27 25 25 26 25 24 25 25 24 23 22 21 20 21 21 21 21 21 22 24 27 28 28 28 27 27 28 28 27 27 25 24 21 20 20 21 22 22 21 21 20 19 17 16 15 15 13 11 10 9 8 8 8 8 8 7 7 7 7 7 7 6 5 5 5 6 6 6 6 4 2 3 3 3 4 6 6 7 9 12 14 16 17 18
27 26 26 25 24 24 25 25 24 24 24 24 23 22 21 21 21 22 23 24 24 24 26 27 27 28 28 28 28 29 29 28 27 25 24 24 24 25 26 25 24 23 22 20 19 18 18 17 16 15 13 12 11 10 9 9 8 8 6 5 5 6 8 9 8 8 7 6 6 6 6 6 4 3 1 1 2 3 4 5 7 9 11 12 15 17 18
29 28 27 27 27 26 26 26 26 25 24 24 24 23 23 23 24 25 26 27 26 26 27 28 29 30 30 29 29 28 27 27 26 25 25 26 27 27 27 25 22 20 18 17 18 19 19 18 16 15 14 13 12 12 11 10 10 9 8 7 7 7 8 8 8 8 8 8 7 7 7 7 5 3 2 2 3 4 5 6 8 11 12 13 16 19 19
31 30 30 30 30 30 30 30 29 28 27 27 28 28 28 29 30 30 30 29 28 27 28 29 30 31 30 29 28 27 25 24 23 22 23 24 26 27 27 26 22 19 17 16 18 20 20 18 16 15 15 14 12 12 11 10 9 9 9 9 8 7 6 6 7 8 9 9 9 10 10 11 10 7 6 6 6 7 8 7 9 12 14 15 18 21 20
30 30 30 30 30 31 31 32 32 32 31 31 31 32 32 33 34 33 32 30 29 28 28 28 29 29 28 27 26 25 23 22 21 21 22 24 25 26 27 26 23 21 19 17 17 18 20 20 19 18 16 15 14 12 10 9 8 8 9 10 10 10 9 8 7 7 8 9 9 10 12 13 13 12 11 11 10 8 8 8 8 11 14 16 19 21 21
29 29 29 29 29 29 30 30 31 32 31 31 31 32 32 32 32 31 30 29 28 28 28 28 27 27 26 25 25 25 24 23 23 23 24 25 26 25 25 24 23 21 20 20 19 19 20 21 20 18 16 15 14 13 11 10 9 9 8 9 9 9 10 10 10 10 10 10 10 11 11 12 13 14 13 13 13 12 10 9 8 10 13 15 18 19 19
29 28 28 28 28 28 29 29 30 30 30 30 29 29 28 28 28 27 27 27 27 27 27 27 27 26 25 24 25 25 26 25 24 24 25 25 25 25 24 23 22 21 21 21 21 22 22 22 22 20 16 14 13 12 12 12 11 11 10 9 9 9 9 10 11 12 12 11 12 12 12 12 13 13 14 14 13 11 11 11 11 12 13 14 16 17 17
29 28 29 29 28 27 28 28 29 29 30 29 28 27 26 26 25 25 25 26 27 27 27 27 27 26 25 23 24 24 25 24 24 23 23 24 25 25 24 23 22 22 22 22 22 23 23 23 23 21 18 15 12 11 12 13 13 13 12 12 11 11 11 11 12 12 12 11 11 11 12 12 13 12 11 12 12 11 9 10 11 12 13 14 14 15 17
29 28 27 27 26 26 27 27 27 27 27 26 26 26 25 25 25 25 25 25 26 26 26 26 25 25 24 23 23 23 23 24 24 24 24 25 26 26 24 23 23 23 22 21 22 23 23 23 22 21 20 17 14 11 11 12 13 12 13 13 13 13 13 13 13 13 12 12 12 12 12 12 12 11 10 10 9 7 4 8 12 12 12 12 12 12 14
29 27 27 27 27 27 27 26 25 25 23 23 24 25 24 23 23 23 23 23 24 24 24 24 23 23 22 22 21 21 21 22 23 23 24 24 24 23 22 22 23 23 22 22 23 23 23 22 21 21 20 18 16 13 12 12 11 12 12 13 13 14 14 14 13 13 13 13 12 12 12 12 11 10 10 11 11 10 6 6 9 10 10 10 10 10 10
27 26 26 26 25 25 24 24 23 23 23 23 24 24 23 21 21 21 21 20 21 21 21 21 21 20 19 18 18 18 18 18 20 21 20 20 19 19 20 22 22 22 22 22 22 23 22 22 22 21 21 19 18 18 17 16 14 14 13 13 13 13 13 13 13 13 12 12 11 11 11 11 11 10 9 8 9 10 9 8 7 8 8 9 8 7 7
25 25 24 23 22 22 22 21 21 22 22 22 22 21 20 19 19 19 18 18 18 18 18 18 18 17 16 16 16 16 15 16 18 18 18 17 17 18 20 21 21 21 21 21 21 21 21 21 21 21 21 21 21 22 21 21 20 19 18 17 17 16 15 15 14 13 12 11 10 10 10 11 11 11 10 9 8 8 8 9 10 10 9 8 7 7 5
24 23 23 22 21 21 20 19 19 19 17 17 17 18 16 15 16 17 17 16 16 16 16 16 16 15 15 15 15 15 14 15 16 16 15 15 16 18 19 19 20 20 20 20 21 20 20 19 19 19 20 21 21 22 22 22 22 22 21 21 21 20 20 20 19 18 16 13 12 11 11 10 10 10 9 9 8 8 8 9 10 11 10 9 8 8 7
23 23 23 23 23 22 20 19 18 16 13 13 14 13 12 11 14 16 16 15 14 15 15 14 14 14 14 13 13 14 13 13 13 12 12 13 15 16 16 17 18 18 19 19 20 20 20 19 19 19 19 20 20 21 22 23 23 23 23 23 22 22 22 21 21 20 20 19 18 16 14 13 11 10 8 7 6 6 5 6 6 8 9 9 9 9 9
23 23 24 23 23 22 21 20 19 17 15 13 12 11 10 11 14 16 15 13 12 12 12 12 12 13 12 12 12 12 11 10 10 11 11 12 13 13 13 14 14 15 16 17 18 19 19 20 20 19 19 19 20 21 22 23 23 24 24 25 24 24 23 23 22 22 22 22 21 20 19 18 15 13 11 9 8 6 4 3 1 2 5 7 9 10 11
20 20 20 19 19 19 19 18 18 17 16 14 13 13 13 13 14 14 13 12 11 11 10 10 11 12 11 11 11 10 9 9 8 9 9 10 10 10 10 10 11 11 12 13 14 15 15 16 16 17 17 17 18 19 19 20 22 23 24 25 25 25 25 25 24 24 23 22 21 21 21 20 19 18 16 14 12 10 8 6 4 2 4 7 9 11 13
Wind_Direction
305 294 285 280 284 266 253 265 254 228 211 205 213 221 196 160 203 236 223 173 188 228 234 229 225 214 217 227 230 236 247 256 258 255 253 254 251 244 237 233 229 224 223 224 221 220 219 218 218 219 219 221 222 224 227 227 226 227 227 227 228 228 228 231 234 236 235 235 235 236 237 238 239 239 239 240 240 241 241 242 241 239 238 238 238 239 240
313 301 284 278 294 296 277 267 257 245 229 216 217 219 201 197 223 236 208 180 197 216 219 224 229 219 216 225 231 232 239 251 256 255 254 256 256 251 243 237 232 227 226 226 223 220 218 217 218 219 220 221 223 225 226 226 227 227 226 227 228 228 230 233 235 234 233 234 234 235 236 237 238 238 238 238 239 240 240 241 241 239 238 238 237 238 239
312 301 305 313 313 304 289 277 261 247 238 230 226 221 206 207 229 237 216 198 215 235 232 234 243 246 248 254 246 235 238 249 258 261 260 258 259 260 257 249 239 231 228 226 223 219 218 219 220 220 222 224 224 226 226 226 228 228 226 227 228 229 233 235 234 232 232 232 233 234 235 236 237 237 236 237 237 238 239 240 240 239 238 237 236 236 238
296 299 328 324 318 312 289 268 256 245 240 238 235 226 206 199 209 225 231 224 229 246 248 251 261 269 263 252 253 256 255 256 262 264 261 261 266 270 269 260 248 237 230 226 223 220 220 221 221 222 224 225 225 226 226 228 229 227 226 227 229 232 235 234 231 231 232 232 232 234 235 235 236 236 236 235 236 237 237 238 238 239 237 236 236 236 237
287 297 313 319 323 316 273 255 248 236 235 245 252 244 219 201 194 204 226 227 214 211 209 228 252 253 243 240 246 254 255 253 256 260 261 265 272 274 271 266 255 243 235 229 226 224 222 221 222 225 226 226 227 230 230 230 228 226 226 229 231 233 233 231 231 232 232 232 232 234 235 235 235 235 235 235 235 235 236 237 238 238 237 236 236 236 237
278 292 309 323 302 251 246 289 313 242 222 221 232 242 229 207 204 211 221 217 206 201 188 197 228 235 227 224 219 219 239 251 257 262 263 266 272 274 273 270 259 247 238 232 229 227 225 225 227 229 228 229 231 232 230 228 226 226 228 230 231 232 231 230 231 232 231 232 234 234 235 234 233 234 235 236 236 236 236 237 237 238 237 237 236 236 236
258 296 328 310 237 233 294 331 333 292 232 208 215 233 231 214 216 221 218 209 211 209 198 204 217 207 170 166 175 187 220 239 252 262 263 260 265 269 272 268 256 246 238 232 229 228 228 228 228 228 229 230 230 228 227 227 227 228 230 231 232 232 231 230 230 231 231 233 234 234 233 232 233 234 235 236 237 237 237 237 238 238 238 238 237 237 237
202 296 303 233 248 292 318 322 333 341 322 283 238 242 237 220 209 214 218 219 218 213 209 209 197 167 143 128 117 144 201 218 232 244 247 251 259 263 263 256 248 244 242 238 234 231 229 228 227 228 230 230 228 227 227 228 228 229 229 231 231 231 231 231 231 231 232 232 233 232 231 231 232 234 235 237 237 237 238 239 240 240 240 239 239 238 238
173 221 255 258 294 309 315 331 4 5 339 335 320 250 252 235 195 190 205 221 228 223 201 176 162 149 133 104 79 111 171 190 203 215 222 235 253 260 259 251 241 238 240 241 239 235 232 231 231 231 231 230 228 227 227 227 227 227 228 229 231 233 233 234 234 233 232 231 231 231 230 230 232 234 236 237 237 237 238 239 240 240 241 241 241 241 241
179 204 261 281 299 284 262 301 316 307 282 261 194 198 272 257 206 193 200 206 209 198 149 154 154 142 126 143 185 153 155 165 165 158 145 128 129 216 258 251 239 231 231 235 235 234 233 234 234 234 233 231 230 229 228 228 227 227 230 232 234 234 236 237 236 235 234 233 232 232 232 233 235 236 237 238 238 238 238 239 241 242 243 243 243 243 243
175 181 230 242 241 243 262 317 319 319 311 286 171 189 268 266 216 198 199 200 193 173 158 158 154 144 154 209 215 178 151 144 136 129 117 101 93 89 87 88 225 226 227 231 230 230 234 236 235 235 233 232 233 232 231 231 230 231 235 238 237 237 239 240 239 237 236 235 234 234 235 237 238 238 238 238 238 239 239 240 242 243 244 245 245 245 245
184 191 221 242 242 249 307 330 323 319 319 327 143 207 257 313 326 253 199 195 196 178 164 159 161 175 188 190 186 170 147 130 123 119 109 98 92 87 84 80 80 92 121 175 197 206 218 224 229 233 233 231 233 234 234 232 231 233 238 242 242 242 242 239 238 238 238 237 237 237 239 241 241 241 240 239 239 239 240 241 241 242 243 244 245 246 246
198 200 225 263 253 257 325 329 324 326 327 320 165 211 270 321 314 296 258 214 198 181 169 166 174 187 165 155 157 155 139 125 121 115 106 98 92 86 83 81 79 80 85 93 116 158 186 203 213 223 230 231 233 235 234 233 235 237 240 242 243 242 240 239 238 239 239 239 240 242 244 245 243 241 240 240 240 240 241 240 239 239 240 240 242 245 246
203 192 217 260 253 293 338 323 337 358 353 200 212 302 307 303 302 309 303 244 194 176 168 163 150 136 136 142 145 144 135 126 119 113 111 106 99 93 88 84 82 80 80 82 84 89 103 156 210 220 230 235 237 239 239 240 244 246 243 242 242 242 242 242 241 242 243 243 243 243 244 243 241 240 241 241 240 240 240 239 238 237 237 237 238 241 244
193 180 200 230 230 317 348 326 354 33 19 266 301 313 306 304 315 335 326 276 184 164 153 142 133 132 134 134 135 131 125 120 115 114 118 113 105 101 95 86 83 80 79 80 77 74 75 82 146 209 223 230 236 244 246 248 251 250 248 248 248 247 248 247 247 247 247 246 245 243 242 241 240 241 240 239 240 240 238 237 236 235 235 235 236 238 241
185 183 193 194 188 107 34 51 109 45 334 320 325 314 302 319 343 349 338 308 176 156 145 137 135 136 132 128 128 122 114 114 112 110 110 103 96 94 91 87 85 82 81 80 77 74 71 70 81 139 196 211 221 232 239 244 247 248 250 252 251 251 251 251 251 251 251 249 247 246 244 242 241 241 240 239 239 238 236 233 233 233 234 234 235 236 238
212 183 171 143 143 124 82 89 94 51 14 359 343 319 310 346 357 355 359 9 156 142 134 132 130 128 126 125 120 113 108 108 107 104 103 98 89 84 84 87 88 87 86 82 79 80 75 65 66 81 117 184 210 222 230 237 242 246 248 251 251 252 252 252 253 253 251 250 249 248 246 244 242 242 241 238 236 234 231 230 231 233 234 233 233 234 235
285 91 134 136 136 132 106 88 72 50 30 14 356 341 352 14 11 16 40 59 124 130 124 122 117 116 119 116 109 105 103 98 95 98 98 95 90 87 85 84 82 85 90 89 85 82 72 60 49 39 36 42 234 239 243 247 250 252 254 254 254 254 254 254 255 254 253 252 250 249 247 244 243 243 241 237 234 233 232 232 233 233 233 232 232 232 233
241 178 156 150 149 143 108 69 48 38 31 18 5 7 24 32 30 57 78 77 91 116 118 117 113 111 111 107 100 97 94 88 84 84 85 85 84 82 80 77 77 86 91 90 89 79 64 52 36 14 358 351 336 311 294 284 273 267 265 261 260 259 256 255 253 252 253 254 253 252 250 246 244 243 240 238 237 235 234 234 233 232 232 231 230 230 231
236 175 164 149 133 109 79 62 47 34 31 23 11 15 38 57 63 81 94 96 97 101 108 112 111 108 104 101 97 92 86 81 77 75 74 76 76 76 79 84 91 109 123 115 61 13 4 6 358 342 330 326 320 315 314 310 304 299 291 278 270 266 262 260 256 253 251 252 252 253 253 251 249 248 245 243 240 237 237 236 234 232 231 231 231 231 229
232 150 171 151 116 78 66 70 62 41 30 39 34 26 35 77 93 93 94 93 90 89 97 105 105 104 103 102 100 98 93 88 86 84 83 82 79 76 75 75 76 89 102 103 288 314 326 325 318 312 308 307 305 304 305 306 308 310 310 307 302 290 277 269 265 261 259 258 257 256 255 255 255 254 252 250 246 243 243 242 240 238 236 234 234 234 230
201 179 189 164 127 85 83 86 74 44 29 63 67 52 38 61 95 102 99 94 86 74 82 101 105 105 107 109 108 105 103 99 96 94 90 87 83 77 72 70 67 65 61 53 48 42 22 353 331 318 309 303 299 296 294 294 296 297 298 300 303 302 297 288 278 271 269 266 264 264 262 260 259 258 257 255 252 249 248 246 244 243 241 239 240 239 235
242 209 177 146 123 115 120 107 94 80 60 70 72 66 46 47 82 101 103 101 96 80 63 96 111 110 110 111 108 103 100 99 96 94 91 88 86 82 77 74 71 68 67 65 65 67 66 62 58 47 30 13 351 326 308 297 292 291 291 292 294 297 298 297 292 286 279 272 269 268 267 265 264 263 262 261 257 252 249 248 246 244 241 239 239 240 238
270 203 161 136 121 122 130 119 109 112 104 78 71 68 55 47 67 89 95 97 101 100 79 90 111 111 108 106 104 101 100 98 95 93 92 90 88 85 79 74 71 70 71 75 78 83 86 85 82 76 68 60 52 44 34 17 342 316 303 298 299 302 303 305 309 309 306 302 297 293 288 283 280 278 279 280 276 265 255 251 249 245 242 238 234 234 235
254 192 156 134 125 125 125 118 118 127 116 91 78 68 63 55 59 77 87 90 98 103 97 88 100 104 103 103 103 102 101 98 96 95 94 91 88 84 78 71 66 64 68 76 82 85 85 83 82 79 73 67 62 59 57 55 52 45 34 16 354 338 331 332 335 334 335 337 334 333 330 319 314 316 314 311 309 295 271 257 249 243 239 236 232 227 226
241 173 141 127 123 125 122 118 124 133 123 112 110 95 72 64 58 64 76 85 92 97 96 92 96 99 99 100 101 101 100 100 99 98 95 92 89 84 79 74 70 67 68 73 76 76 77 80 81 79 76 70 65 61 59 58 58 58 58 57 55 52 47 38 30 29 32 29 23 20 16 7 358 355 346 335 334 328 295 267 252 241 232 225 220 215 211
212 155 136 121 118 127 130 129 133 134 126 122 126 124 99 88 79 70 72 81 87 88 88 92 97 100 101 100 100 100 100 100 99 96 94 93 91 89 89 88 86 80 75 73 72 71 69 69 73 76 76 72 66 61 56 51 50 54 59 62 63 63 63 61 60 60 58 53 47 40 33 26 16 9 6 1 4 7 335 271 246 225 209 200 193 185 177
169 149 143 141 143 144 139 137 141 140 133 127 128 126 116 104 97 88 82 83 85 82 79 84 92 98 100 101 102 102 101 99 97 94 92 92 93 93 94 94 91 88 83 79 75 72 68 68 70 73 73 70 66 62 56 51 48 49 52 57 59 60 61 60 59 61 59 55 50 41 33 28 20 16 20 21 23 31 27 309 230 190 168 158 152 148 148
169 161 158 152 150 148 141 139 142 142 137 135 133 128 124 113 102 94 90 92 95 94 89 86 89 93 96 98 102 102 100 97 94 93 92 94 95 94 93 91 90 88 84 80 75 71 69 70 71 70 67 65 64 63 58 53 50 48 47 51 55 57 58 56 53 54 58 59 52 38 27 25 19 16 23 29 31 38 43 39 66 113 122 124 127 131 137
172 167 154 144 143 144 141 138 141 140 139 140 136 129 128 123 112 104 102 103 104 101 95 92 93 93 93 94 95 93 91 91 90 89 89 91 92 92 92 94 92 85 79 76 74 72 69 68 67 65 62 57 55 55 54 50 47 44 42 43 45 49 54 53 45 43 51 57 50 32 19 18 13 5 11 28 41 50 58 60 63 80 98 109 116 122 127
141 137 134 133 134 134 132 129 128 128 129 132 131 127 126 123 117 113 111 108 106 103 98 93 90 88 89 92 93 91 88 87 85 84 82 80 80 81 83 83 81 77 73 72 72 72 71 68 64 60 58 57 56 56 52 45 39 33 28 27 27 29 37 40 33 31 41 47 43 34 23 17 15 7 6 23 46 59 66 69 71 76 88 100 109 116 123
124 119 122 124 123 123 122 120 121 121 119 119 119 117 116 116 113 109 107 105 105 106 103 97 93 92 94 97 96 93 89 86 82 79 76 73 70 68 67 67 68 69 67 65 63 64 65 64 58 52 50 53 57 57 54 47 40 31 22 18 15 11 13 17 14 15 24 33 38 40 33 23 20 21 23 33 48 58 59 63 69 74 81 92 104 117 134
119 115 120 123 121 120 118 117 119 119 117 115 112 109 108 108 105 103 102 101 100 100 99 98 99 101 101 98 92 87 83 79 75 70 68 66 63 60 58 58 58 58 57 54 51 51 52 52 49 46 45 46 46 45 41 36 35 36 34 31 27 20 17 22 25 20 20 28 36 43 48 41 32 29 35 45 59 69 74 78 86 95 106 116 123 133 147
110 112 118 121 119 117 115 114 116 116 116 115 112 109 108 106 105 106 106 104 101 100 99 98 100 102 101 97 90 84 79 75 70 66 64 62 61 60 60 59 59 57 55 50 46 43 41 37 35 34 36 36 38 41 40 36 30 27 24 25 27 26 24 30 46 48 36 37 45 44 45 50 50 41 37 46 65 83 96 107 116 125 133 139 144 149 155
107 109 111 113 113 111 110 111 112 113 116 117 115 112 113 113 112 111 108 104 103 102 100 99 99 98 95 92 86 80 76 73 70 68 67 65 65 66 66 66 64 59 55 50 44 38 32 25 21 20 17 14 17 25 32 36 34 30 22 15 14 18 20 25 40 46 34 31 47 56 46 42 45 44 41 56 84 98 107 118 126 133 142 149 153 156 156
108 109 109 110 112 111 111 111 113 115 117 118 117 116 116 114 112 109 106 103 102 99 97 96 94 90 87 85 81 77 76 74 73 72 70 68 66 65 63 61 58 54 51 47 40 33 27 22 18 14 5 357 355 357 360 7 15 18 18 15 9 7 8 8 8 16 22 27 38 50 49 40 39 47 54 66 92 111 121 132 139 145 153 159 160 158 154
99 102 104 107 110 111 112 112 114 116 115 114 114 114 112 110 108 105 102 99 97 94 91 89 87 86 85 84 82 81 80 78 76 74 71 69 66 63 60 56 51 48 46 40 32 25 22 20 17 15 11 7 2 356 351 349 348 348 353 5 14 16 14 9 358 355 10 34 44 45 42 36 30 43 73 80 87 102 115 132 149 159 162 163 163 161 156
85 88 93 97 100 103 106 106 107 108 107 104 103 103 102 102 102 99 97 95 94 92 90 88 88 89 89 87 86 85 82 80 77 74 70 66 63 60 57 53 48 45 43 37 27 20 17 14 13 16 20 22 21 18 13 6 359 351 343 338 342 348 352 356 357 352 348 1 22 30 31 28 17 8 34 99 114 117 124 139 161 172 173 169 168 169 166
81 83 86 90 94 96 97 97 97 98 98 99 97 94 93 94 94 94 95 96 96 95 95 94 92 91 89 87 86 83 81 80 78 73 68 66 64 62 60 56 51 48 45 38 30 26 23 20 19 22 24 24 22 22 22 19 14 8 358 342 327 318 318 328 342 343 333 321 321 334 344 346 340 328 290 224 186 168 163 168 175 182 185 180 174 172 171
79 81 83 87 90 92 92 91 90 90 92 95 97 96 95 95 95 94 93 93 93 93 93 91 89 88 86 85 84 82 81 81 78 72 68 66 62 60 59 56 51 49 45 39 34 32 31 31 33 34 31 28 25 24 25 27 23 18 17 15 8 359 347 337 330 328 324 313 303 306 311 312 309 303 286 263 232 200 188 188 186 185 188 186 179 174 173
78 81 82 83 83 84 85 87 88 88 89 90 93 96 97 97 96 95 94 94 93 92 89 86 85 85 83 82 81 79 77 76 73 68 65 61 57 56 56 53 47 42 39 35 34 34 33 34 37 39 38 37 36 33 30 31 31 29 30 33 33 31 28 20 3 347 341 333 321 314 310 306 304 302 296 287 275 247 219 205 194 188 188 185 180 177 178
78 79 82 82 82 82 85 87 88 89 88 88 91 94 97 99 99 99 99 98 96 92 89 86 84 82 79 76 73 71 69 68 65 62 60 58 56 55 54 50 44 37 33 31 31 33 32 32 33 35 35 37 39 38 36 39 42 43 41 41 41 39 35 32 25 15 5 356 349 342 334 324 317 310 302 298 294 277 249 221 197 187 187 186 185 184 183
81 82 83 84 84 85 88 90 91 91 91 91 93 95 97 100 100 99 96 92 89 85 82 79 75 72 69 67 65 65 64 63 62 61 61 60 58 55 52 49 43 37 34 32 32 33 32 29 27 26 26 28 32 36 37 40 43 43 40 40 41 41 40 40 38 33 25 17 10 5 358 349 336 320 308 306 305 286 251 217 190 177 176 181 185 184 178
88 88 87 87 87 88 90 91 91 91 91 92 94 95 96 96 95 92 88 84 80 76 73 70 67 64 62 61 62 63 62 60 58 57 57 57 56 54 50 46 42 38 35 34 35 35 34 29 24 21 20 20 22 25 31 37 43 44 42 42 43 43 44 46 45 42 35 27 19 14 8 4 358 345 329 320 311 289 250 208 179 165 161 164 171 174 171
92 92 92 93 92 91 90 90 89 89 90 91 91 90 89 88 87 85 83 80 78 75 73 71 68 66 65 65 65 65 63 60 56 53 50 52 54 52 46 41 39 37 35 35 37 39 36 30 25 22 20 20 17 16 21 30 37 41 44 44 43 42 42 42 40 37 32 25 20 17 15 14 14 13 8 358 342 315 247 183 163 152 145 144 149 158 162
93 94 95 95 93 92 92 91 88 88 88 88 87 87 86 85 85 84 82 82 82 81 80 78 76 75 75 74 72 68 65 62 59 55 52 51 52 48 42 38 36 34 32 35 39 40 37 32 28 26 24 23 23 25 27 29 32 35 39 40 37 36 38 38 36 33 29 23 19 19 22 24 25 25 26 30 31 30 49 122 146 150 144 137 135 138 147
89 89 89 90 89 89 90 90 89 88 88 88 88 90 90 89 88 87 85 85 85 84 83 83 82 80 78 76 72 69 66 63 62 59 54 49 46 42 38 36 34 31 31 35 39 40 37 34 32 31 30 31 33 36 39 40 39 38 39 39 36 35 35 34 32 32 29 25 25 30 33 34 34 32 33 42 51 53 58 78 109 132 140 136 125 118 130
81 81 82 84 83 82 83 83 84 85 87 90 93 94 94 92 90 89 88 87 86 85 84 83 82 79 76 71 68 65 61 57 58 58 53 48 46 44 42 40 38 35 34 36 39 39 37 34 34 33 34 35 38 40 42 44 45 45 45 44 43 41 39 35 32 32 31 29 31 36 37 35 36 40 45 52 62 68 77 92 110 124 131 125 106 91 97
77 77 77 78 78 78 79 82 84 88 94 97 99 99 98 95 92 91 90 88 87 86 86 85 82 80 77 73 69 66 62 58 59 60 56 50 49 48 46 44 44 43 41 41 42 40 37 35 34 33 34 36 39 41 41 41 42 44 44 44 43 42 41 39 36 34 33 31 30 30 28 26 28 34 40 45 49 56 69 89 110 124 130 124 112 108 115
80 79 78 77 77 77 78 79 84 91 98 102 101 100 96 90 87 88 88 89 89 88 88 89 87 84 80 76 73 72 69 65 62 60 54 49 48 47 43 40 40 41 42 43 44 42 40 37 36 35 35 35 37 39 39 38 38 39 38 38 37 35 34 34 34 33 33 32 29 27 26 24 22 20 21 24 28 37 51 70 96 121 133 135 135 142 152
80 81 81 81 80 79 78 78 80 82 84 86 89 90 88 88 90 90 87 86 86 86 87 88 86 82 77 73 71 71 71 68 63 58 55 53 52 50 46 42 39 37 37 38 40 40 40 38 38 39 39 39 39 40 40 40 40 40 39 37 35 33 30 28 27 26 27 28 28 28 28 26 22 20 20 19 15 11 8 8 31 146 157 159 166 175 182
82 82 82 82 80 79 79 78 77 77 78 80 82 85 89 94 97 94 88 84 83 81 79 78 76 72 67 62 60 59 60 61 60 57 57 57 56 53 51 50 48 45 44 43 42 41 41 40 39 39 39 39 39 40 40 39 39 39 37 36 35 33 31 29 26 23 22 22 23 24 25 26 25 25 25 23 20 18 13 4 346 292 229 211 205 204 204